GW2582 Weather Reports


time (UTC)temp
C
wind
direction
speed
KPH
gust
KPH
rain 1hr
cm
rain 24hr
cm
rain mn
cm
humidity
%
barometer
mb
20260906200048 30 113 6.4 11.3 0.00 0.00 0.00 60 1014.8
20260906194547 29 101 6.4 11.3 0.00 0.00 0.00 62 1014.9
20260906193055 29 102 6.4 12.9 0.00 0.00 0.00 63 1015.1
20260906191554 28 91 6.4 11.3 0.00 0.00 0.00 66 1015.4
20260906190051 28 103 6.4 14.5 0.00 0.00 0.00 65 1015.7
20260906184548 28 106 6.4 14.5 0.00 0.00 0.00 67 1016.0
20260906183113 27 84 4.8 14.5 0.00 0.00 0.00 73 1016.4
20260906181555 26 65 4.8 12.9 0.00 0.00 0.00 72 1016.6
20260906180111 26 77 4.8 14.5 0.00 0.00 0.00 73 1016.9
20260906174547 26 91 3.2 9.7 0.00 0.00 0.00 76 1017.4
20260906173056 25 80 3.2 8.0 0.00 0.00 0.00 77 1017.6
20260906171550 25 28 3.2 8.0 0.00 0.00 0.00 79 1017.9
20260906170049 24 53 1.6 6.4 0.00 0.00 0.00 83 1018.2
20260906164547 23 31 3.2 6.4 0.00 0.00 0.00 85 1018.3
20260906163101 23 35 1.6 6.4 0.00 0.00 0.00 86 1018.5
20260906161557 22 0 0.0 3.2 0.00 0.00 0.00 86 1018.8
20260906160049 22 355 0.0 3.2 0.00 0.00 0.00 86 1018.6
20260906154557 22 0 0.0 3.2 0.00 0.00 0.00 86 1018.3
20260906153050 22 23 0.0 4.8 0.00 0.00 0.00 86 1018.3
20260906151552 22 29 0.0 3.2 0.00 0.00 0.00 86 1018.3
20260906150104 22 0 0.0 4.8 0.00 0.00 0.00 86 1018.2
20260906144602 22 70 1.6 8.0 0.00 0.00 0.00 85 1018.2
20260906143054 22 56 1.6 8.0 0.00 0.00 0.00 84 1018.5
20260906141551 23 359 3.2 9.7 0.00 0.00 0.00 82 1018.3
20260906140058 22 28 4.8 12.9 0.00 0.00 0.00 82 1018.1
20260906134559 23 46 3.2 9.7 0.00 0.00 0.00 79 1018.1
20260906133053 23 45 4.8 9.7 0.00 0.00 0.00 74 1017.9
20260906131549 24 310 3.2 9.7 0.00 0.00 0.00 72 1017.8
20260906130106 23 289 4.8 14.5 0.00 0.00 0.00 72 1017.6
20260906124555 22 288 3.2 11.3 0.00 0.00 0.00 79 1017.2
20260906123052 21 0 0.0 0.0 0.00 0.00 0.00 82 1016.6
20260906121555 21 0 0.0 0.0 0.00 0.00 0.00 82 1016.1
20260906120059 21 0 0.0 0.0 0.00 0.00 0.00 81 1015.9
20260906114610 21 0 0.0 0.0 0.00 0.00 0.00 80 1015.7
20260906113056 21 0 0.0 0.0 0.00 0.00 0.00 77 1015.4
20260906111549 22 0 0.0 3.2 0.00 0.00 0.00 76 1015.1
20260906110047 22 0 0.0 4.8 0.00 0.00 0.00 76 1014.7
20260906104555 22 132 0.0 3.2 0.00 0.00 0.00 75 1014.5
20260906103051 23 131 3.2 6.4 0.00 0.00 0.00 74 1014.5
20260906101547 23 188 1.6 8.0 0.00 0.00 0.00 74 1014.6
20260906100056 23 156 1.6 3.2 0.00 0.00 0.00 74 1014.7
20260906094550 23 0 0.0 8.0 0.00 0.00 0.00 74 1014.7
20260906093051 23 136 0.0 4.8 0.00 0.00 0.00 74 1014.5
20260906091550 23 138 0.0 1.6 0.00 0.00 0.00 74 1014.6
20260906090048 23 0 0.0 3.2 0.00 0.00 0.00 75 1014.6
20260906084551 23 113 0.0 3.2 0.00 0.00 0.00 73 1014.5
20260906083050 23 121 1.6 3.2 0.00 0.00 0.00 73 1014.5
20260906081556 22 115 0.0 3.2 0.00 0.00 0.00 77 1014.6
20260906080047 21 0 0.0 0.0 0.00 0.00 0.00 84 1014.7
20260906074609 21 0 0.0 0.0 0.00 0.00 0.00 84 1014.8
20260906073051 22 0 0.0 0.0 0.00 0.00 0.00 82 1014.8
20260906071548 22 0 0.0 0.0 0.00 0.00 0.00 81 1014.7
20260906070048 22 0 0.0 0.0 0.00 0.00 0.00 83 1014.7
20260906064555 21 0 0.0 0.0 0.00 0.00 0.00 85 1014.6
20260906063050 21 0 0.0 0.0 0.00 0.00 0.00 84 1014.6
20260906061610 22 0 0.0 1.6 0.00 0.00 0.00 82 1014.5
20260906060048 22 0 0.0 1.6 0.00 0.00 0.00 83 1014.2
20260906054551 22 0 0.0 1.6 0.00 0.00 0.00 83 1014.2
20260906053051 22 0 0.0 1.6 0.00 0.00 0.00 81 1014.0
20260906051559 22 0 0.0 0.0 0.00 0.00 0.00 80 1014.1
20260906050054 23 0 0.0 1.6 0.00 0.00 0.00 78 1014.2
20260906044552 23 108 0.0 1.6 0.00 0.00 0.00 76 1014.2
20260906043049 23 117 0.0 1.6 0.00 0.00 0.00 77 1014.3
20260906041549 23 0 0.0 1.6 0.00 0.00 0.00 77 1014.5
20260906040057 24 0 0.0 1.6 0.00 0.00 0.00 77 1014.5
20260906034551 23 0 0.0 1.6 0.00 0.00 0.00 77 1014.5
20260906033052 24 0 0.0 0.0 0.00 0.00 0.00 77 1014.4
20260906031602 24 0 0.0 1.6 0.00 0.00 0.00 77 1014.3
20260906030053 24 0 0.0 3.2 0.00 0.00 0.00 77 1014.2
20260906024551 24 0 0.0 1.6 0.00 0.00 0.00 77 1014.2
20260906023050 24 0 0.0 1.6 0.00 0.00 0.00 77 1013.8
20260906021550 24 131 0.0 1.6 0.00 0.00 0.00 76 1013.5
20260906020057 25 0 0.0 3.2 0.00 0.00 0.00 73 1013.6
20260906014555 26 97 0.0 3.2 0.00 0.00 0.00 70 1013.4
20260906013054 26 183 1.6 3.2 0.00 0.00 0.00 70 1013.2
20260906011553 27 0 0.0 0.0 0.00 0.00 0.00 65 1012.8
20260906010054 28 0 0.0 4.8 0.00 0.00 0.00 62 1012.8
20260906004548 29 164 1.6 6.4 0.00 0.00 0.00 59 1013.0
20260906003054 30 213 3.2 8.0 0.00 0.00 0.00 57 1012.9
20260906001551 30 221 3.2 6.4 0.00 0.00 0.00 57 1013.0
20260906000050 30 145 3.2 8.0 0.00 0.00 0.00 58 1013.1
20260905234547 30 175 3.2 9.7 0.00 0.00 0.00 58 1013.2
20260905233053 29 212 3.2 11.3 0.00 0.00 0.00 57 1013.2
20260905231549 28 145 3.2 11.3 0.00 0.00 0.00 55 1013.2
20260905230054 28 116 6.4 11.3 0.00 0.00 0.00 56 1013.4
20260905224603 28 118 6.4 11.3 0.00 0.00 0.00 59 1013.3
20260905223050 28 124 12.9 22.5 0.00 0.00 0.00 58 1013.4
20260905221604 27 105 9.7 19.3 0.00 0.00 0.00 62 1013.6
20260905220107 28 145 6.4 17.7 0.00 0.00 0.00 56 1013.5
20260905214550 26 120 9.7 25.7 0.00 0.00 0.00 60 1013.5
20260905213052 25 114 11.3 20.9 0.00 0.00 0.00 73 1013.4
20260905211603 26 113 6.4 25.7 0.00 0.00 0.00 71 1013.5
20260905210104 26 61 3.2 8.0 0.00 0.00 0.00 72 1013.7
20260905204556 26 91 4.8 16.1 0.00 0.00 0.00 71 1013.7
20260905203111 25 36 14.5 33.8 0.00 0.00 0.00 72 1013.5
20260905201549 30 37 6.4 12.9 0.00 0.00 0.00 55 1013.3